CST,Max TemperatureF,Mean TemperatureF,Min TemperatureF,Max Dew PointF,MeanDew PointF,Min DewpointF,Max Humidity, Mean Humidity, Min Humidity, Max Sea Level PressureIn, Mean Sea Level PressureIn, Min Sea Level PressureIn, Max VisibilityMiles, Mean VisibilityMiles, Min VisibilityMiles, Max Wind SpeedMPH, Mean Wind SpeedMPH, Max Gust SpeedMPH,PrecipitationIn, CloudCover, Events, WindDirDegrees
2013-11-1,53,42,31,38,32,25,86,65,44,30.15,29.91,29.70,10,10,10,36,15,51,T,5,Rain,306
2013-11-2,61,42,22,26,24,21,92,57,22,30.23,30.09,29.79,10,10,10,23,11,31,0.00,0,,218
2013-11-3,59,46,33,35,31,27,96,68,39,29.78,29.66,29.53,10,10,10,25,11,31,0.00,0,,208
2013-11-4,50,41,31,36,29,25,92,66,39,30.17,30.01,29.81,10,10,8,18,7,25,0.05,4,Rain,327
2013-11-5,37,32,27,30,27,25,92,78,64,30.25,30.14,30.07,10,4,0,15,7,18,0.28,8,Fog-Snow,21
2013-11-6,46,35,23,29,25,21,96,73,49,30.36,30.22,30.14,10,9,0,15,8,16,0.00,5,Fog,256
2013-11-7,51,37,22,31,27,21,96,67,38,30.47,30.33,30.04,10,10,10,16,7,21,0.00,1,,234
2013-11-8,61,47,32,36,30,27,82,58,33,30.00,29.82,29.68,10,10,10,31,14,39,0.00,0,,248
2013-11-9,54,40,25,32,27,23,92,65,38,30.38,30.23,30.03,10,10,10,22,7,26,0.00,4,,286
2013-11-10,63,47,30,36,30,25,79,57,34,30.37,30.23,30.09,10,10,10,25,8,32,0.00,2,,221
2013-11-11,37,24,10,29,17,5,88,71,54,30.87,30.55,30.19,10,10,6,21,11,29,T,6,,10
2013-11-12,51,30,8,31,21,4,91,68,44,30.87,30.64,30.34,10,10,10,18,9,23,0.00,0,,212
2013-11-13,67,47,27,34,30,26,92,57,22,30.30,30.10,29.96,10,10,10,14,5,16,0.00,1,,275
2013-11-14,57,43,29,42,34,27,92,64,35,30.04,29.95,29.87,10,10,9,21,7,28,0.05,2,Rain,305
2013-11-15,60,44,27,37,33,25,92,65,37,29.85,29.62,29.43,10,10,10,28,12,38,0.00,0,,197
2013-11-16,57,44,30,34,26,19,92,58,24,29.43,29.36,29.30,10,10,10,33,11,45,0.00,0,,256
2013-11-17,43,33,23,36,27,21,92,71,49,30.12,29.78,29.42,10,9,1,29,11,39,0.02,4,Snow,281
2013-11-18,58,39,19,23,20,15,92,58,23,30.23,30.13,30.03,10,10,10,12,4,13,0.00,0,,207
2013-11-19,60,42,23,28,24,19,81,52,23,30.01,29.76,29.63,10,10,10,25,11,31,0.00,0,,205
2013-11-20,53,37,21,31,26,13,85,65,44,30.24,29.89,29.66,10,10,10,29,11,37,0.00,3,,339
2013-11-21,21,12,2,11,7,-1,86,74,62,30.81,30.51,30.23,10,4,0,28,14,38,0.12,7,Snow,339
2013-11-22,36,14,-8,13,2,-11,87,60,32,30.80,30.74,30.65,10,10,10,17,8,21,0.00,0,,265
2013-11-23,24,15,5,14,11,3,88,75,62,30.90,30.77,30.58,10,9,2,13,5,15,T,4,Snow,149
2013-11-24,42,28,13,28,19,9,80,66,51,30.56,30.23,30.04,10,10,10,28,13,35,0.00,0,,216
2013-11-25,43,32,21,26,22,17,88,65,41,30.34,30.23,30.07,10,10,9,21,9,28,0.00,1,,310
2013-11-26,30,19,8,19,11,3,83,57,31,30.56,30.46,30.33,10,10,10,20,10,25,0.00,3,,333
2013-11-27,58,34,9,26,19,5,83,54,24,30.45,30.15,29.95,10,10,10,21,10,26,0.00,0,,260
2013-11-28,30,25,20,22,19,17,92,82,72,30.45,30.36,30.19,10,10,7,16,6,21,0.00,5,,26
2013-11-29,52,37,22,28,23,19,88,63,38,30.34,30.16,30.05,10,9,7,21,11,28,0.00,0,,218
2013-11-30,55,38,20,30,25,19,92,62,32,30.22,30.16,30.11,10,10,10,10,4,12,0.00,0,,305